Location: Stonelick Lake State Park
(39.2170°N, 84.0850°W)
Time: 03:00:36
(UTC-04:00)

Daily predictions for brighter satellites

Satellite Brightness Start Highest point End
(mag) Time Altitude Azimuth Time Altitude Azimuth Time Altitude Azimuth
USA 215 4.2 03:56:47 10° ESE 04:01:22 41° ENE 04:01:22 41° ENE
CZ-2D R/B 4.0 04:21:21 10° NNE 04:23:15 23° NNE 04:23:15 23° NNE
SL-16 R/B 4.5 04:41:34 17° NNW 04:41:34 17° NNW 04:42:49 10° NNW
Resurs 1-4 Rocket 3.9 04:33:17 10° N 04:35:23 25° N 04:35:23 25° N
NOSS 3-4 (A) 4.3 04:43:54 42° N 04:43:54 42° N 04:48:40 10° NNE
NOSS 3-4 (C) 4.3 04:43:59 42° N 04:43:59 42° N 04:48:47 10° NNE
SL-16 R/B 2.9 04:37:31 10° NNW 04:43:04 50° ENE 04:48:33 10° SE
DELTA 2 R/B (1) 4.4 04:46:13 47° E 04:46:13 47° E 04:50:09 10° E
Cosmos 2227 Rocket 3.4 04:53:25 32° N 04:53:25 32° N 04:56:39 10° NNE
Okean O Rocket 3.2 04:47:34 10° NNE 04:50:22 33° NE 04:50:22 33° NE
Cosmos 2297 Rocket 2.9 05:01:18 43° N 05:01:18 43° N 05:05:17 10° NNE
CZ-4B R/B 4.1 05:00:14 10° NNE 05:04:32 45° E 05:04:41 45° ESE
Lacrosse 5 3.4 05:12:13 25° NNW 05:12:13 25° NNW 05:15:29 10° NNE
Cosmos 2100 Rocket 4.0 05:08:41 10° N 05:14:59 78° E 05:21:17 10° S
Cosmos 1802 Rocket 4.2 05:14:04 10° N 05:20:12 68° E 05:26:17 10° SSE
Cosmos 2061 Rocket 4.0 05:17:40 10° N 05:24:03 83° E 05:30:27 10° S
OAO 2 Rocket 3.9 05:26:15 45° S 05:26:30 45° SSE 05:31:33 10° E
ADEOS II 3.2 05:23:34 10° NNE 05:28:33 42° E 05:33:31 10° S
CZ-4B DEB 4.2 05:25:32 10° NNE 05:31:03 83° ESE 05:34:08 28° S
Cosmos 990 Rocket 4.2 05:30:49 30° S 05:33:24 70° ESE 05:38:38 10° NNE
Cosmos 2298 Rocket 4.1 05:38:31 52° WNW 05:38:43 53° WNW 05:43:55 10° N
Cosmos 1000 Rocket 4.4 05:34:55 22° SSW 05:39:14 76° W 05:45:35 10° N
Genesis I 3.2 05:40:15 71° SSE 05:40:33 77° ESE 05:44:33 10° NE
ADEOS Rocket 3.1 05:37:05 10° NNE 05:44:05 88° E 05:50:19 10° SSW
Cosmos 2016 Rocket 4.0 05:38:30 10° N 05:44:52 88° E 05:51:06 10° S
USA 215 3.4 05:39:46 10° SSE 05:46:02 48° SW 05:48:46 31° WNW
Cosmos 2058 Rocket 3.7 05:43:15 10° NNW 05:46:14 39° NW 05:46:14 39° NW
Cosmos 2173 Rocket 3.9 05:43:39 10° NNW 05:49:39 61° W 05:55:42 10° S
Cosmos 2150 Rocket 4.2 05:51:06 43° W 05:51:45 45° WNW 05:56:41 10° N
Meteor 2-15 4.3 05:45:54 10° S 05:51:57 81° W 05:58:03 10° N
Cosmos 967 Rocket 4.4 05:48:53 30° SW 05:52:13 74° WNW 05:58:40 10° NNE
EXPRESS MD2 3.4 05:51:19 49° NW 05:52:13 79° NE 05:58:09 10° ESE
PAYLOAD B 4.3 05:47:00 10° N 05:52:23 56° WNW 05:54:56 30° SW
Tiangong 1 1.7 05:52:48 47° NNE 05:52:48 47° NNE 05:55:39 10° E
Cosmos 1459 Rocket 4.0 05:46:51 10° NNW 05:53:03 56° W 05:59:09 10° SSW
Thor Agena Rocket 3.5 05:48:10 10° SSE 05:53:28 85° WSW 05:58:48 10° NNW
Cosmos 1174 3.5 05:52:40 43° N 05:53:31 67° ENE 05:56:56 10° SE
Cosmos 1515 3.9 05:50:38 13° S 05:53:56 69° E 05:57:44 10° NNE
CENTAUR R/B 3.0 05:46:40 10° NW 05:54:36 81° WSW 06:02:58 10° SSE
SL-08 R/B 4.5 05:48:54 10° N 05:55:13 89° E 06:01:35 10° S
CZ-2C R/B 4.2 05:56:28 39° WNW 05:56:28 39° WNW 06:00:16 10° NNW
FALCON 9 R/B 3.8 05:54:19 23° SW 05:58:41 55° SSE 06:21:01 10° E
Meteor 1-31 Rocket 4.2 05:56:22 10° NNE 06:00:05 40° E 06:03:47 10° S
Cosmos 1340 4.1 05:57:12 10° SSE 06:00:45 39° E 06:04:20 10° NNE
Okean-O 2.6 05:58:08 10° NNE 06:02:35 84° E 06:07:01 10° SSW
CZ-3A R/B 4.4 05:59:45 15° SW 06:03:38 19° SSW 06:07:07 10° SSE
Cosmos 2123 Rocket 3.9 05:58:16 10° S 06:04:27 87° W 06:10:40 10° N
CZ-4B R/B 3.5 06:00:09 10° N 06:05:18 45° WNW 06:08:28 23° SW
NOSS 2-2 (D) 3.6 06:04:35 38° WSW 06:05:51 55° NW 06:10:29 10° NNE
CZ-2D R/B 4.2 06:04:04 10° NW 06:04:35 11° NW 06:04:35 11° NW
Cosmos 1626 Rocket 3.4 06:05:01 10° SSW 06:09:21 66° W 06:13:41 10° N
Meteor PRIRODA 3.6 06:06:53 10° NNE 06:10:38 90° W 06:14:19 10° SSW
Cosmos 1898 Rocket 4.4 06:09:59 27° W 06:11:03 29° WNW 06:15:38 10° N
Meteor 2-15 Rocket 4.4 06:07:13 10° SSW 06:13:13 64° W 06:19:15 10° N
Cosmos 2227 4.3 06:10:25 17° SW 06:14:45 58° WNW 06:20:26 10° NNE
NOSS 5 (C) 4.2 06:14:23 25° SW 06:16:15 86° WNW 06:19:23 10° NNE
Cosmos 1125 Rocket 3.8 06:12:18 10° S 06:17:26 67° ESE 06:22:36 10° NNE
Cosmos 1937 Rocket 4.2 06:16:20 24° WSW 06:18:31 34° WNW 06:23:20 10° N
BREEZE M DEB (TANK) 4.4 06:16:22 15° NW 06:19:17 31° N 06:28:54 10° ENE
Cosmos 1864 Rocket 4.5 06:14:34 10° N 06:20:55 73° W 06:27:14 10° S
NOSS 2-2 (C) 4.1 06:19:34 26° W 06:21:21 39° NW 06:25:50 10° NNE
NOSS 2-2 (E) 4.3 06:20:27 25° W 06:22:13 35° NW 06:26:43 10° NNE
Cosmos 2098 Rocket 3.8 06:21:42 10° NNW 06:25:47 39° W 06:30:52 10° SSW
SL-16 R/B 3.3 06:22:34 10° NW 06:26:44 21° W 06:30:53 10° SSW
Okean O Rocket 3.2 06:25:02 10° NNW 06:27:46 16° WNW 06:27:49 16° WNW
Cosmos 972 Rocket 4.4 06:23:32 10° SSW 06:29:00 55° WNW 06:35:10 10° N
CZ-4B R/B 3.7 06:25:10 10° NNE 06:29:01 89° ESE 06:32:43 10° SSW
DELTA 2 R/B (1) 3.6 06:27:00 19° W 06:31:05 87° N 06:36:42 10° E
Feng Yun 1-1 Rocket 4.3 06:26:46 10° N 06:32:24 62° WNW 06:38:08 10° SSW
Cosmos 1602 Rocket 4.2 06:30:22 10° SW 06:34:25 34° WNW 06:38:28 10° N
Iridium 4 Rocket 4.1 06:32:03 10° SSE 06:36:44 54° E 06:41:03 10° NNE
PSLV R/B 4.4 06:33:44 10° N 06:37:29 30° WNW 06:41:13 10° SW
Cosmos 1066 Rocket 4.2 06:32:35 10° SSW 06:38:13 72° W 06:44:02 10° N
Cosmos 2084 Rocket 3.2 06:37:11 10° NW 06:41:06 87° WSW 06:45:12 10° SSE
Cosmos 2228 4.4 06:38:14 10° NW 06:41:17 19° W 06:44:19 10° SW
Cosmos 1758 Rocket 4.5 06:38:20 10° S 06:42:31 53° E 06:46:43 10° NNE
NOAA 6 4.0 06:39:06 10° NNE 06:44:19 86° WNW 06:49:30 10° SSW
SKYMED 2 4.1 06:40:21 10° SSE 06:44:38 66° ENE 06:48:57 10° N
MOS 1 Rocket 3.6 06:42:08 10° N 06:46:56 54° WNW 06:51:59 10° SSW
USA 129 2.1 06:46:46 10° SSW 06:48:21 26° W 06:49:47 10° NW
Cosmos 2233 Rocket 4.0 06:44:34 10° NNW 06:50:46 68° W 06:56:54 10° S
SL-24 R/B 3.7 06:48:54 10° N 06:53:01 79° WNW 06:56:44 10° SSW
DNEPR-1 R/B 4.2 06:50:18 10° NNW 06:55:08 62° NE 06:59:20 10° SE
Lacrosse 5 4.2 06:54:24 10° NNW 06:55:47 11° N 06:57:10 10° N
SeaSat 1 4.3 06:55:56 10° ESE 07:00:20 34° NE 07:04:45 10° N
Cosmos 1812 Rocket 4.4 06:56:57 10° NNW 07:00:46 28° W 07:04:34 10° SSW
COBE Rocket 4.4 06:56:52 10° N 07:01:12 36° WNW 07:05:26 10° SW
Cosmos 1943 3.2 07:01:31 10° NNW 07:07:05 64° WSW 07:12:39 10° S
BREEZE-M DEB (TANK) 3.2 06:58:05 10° WNW 07:07:10 53° SW 07:10:18 10° SSE
ADEOS II 3.2 07:03:54 10° NNW 07:07:59 23° WNW 07:12:04 10° WSW
Cosmos-2242 4.3 07:04:02 10° N 07:08:17 47° E 07:12:28 10° SSE
OAO 2 Rocket 3.9 07:05:53 10° W 07:11:03 54° S 07:16:14 10° ESE
